Location: McLaughlin
(0.0000°N, 0.0000°E)
Time: 15:46:36
(UTC+00:00)

Hubble Space Telescope - Pass Details

Date: 22 June 2019
Orbit: 536 x 540 km, 28.5° (Epoch: 22 July)

Event Time Altitude Azimuth Distance (km) Brightness Sun altitude
Rises 18:20:47 0° 243° (WSW) 2,680 5.0 -4.3°
Reaches altitude 10° 18:23:04 10° 244° (WSW) 1,787 4.1 -4.8°
Maximum altitude 18:27:11 75° 330° (NNW) 556 1.0 -5.8°
Drops below altitude 10° 18:31:19 10° 55° (NE) 1,782 3.1 -6.7°
Sets 18:33:34 0° 57° (ENE) 2,671 4.0 -7.2°
